sat.trackr.live / text

‹ back to catalog

VINASAT-1

NORAD 32767 · 2008-018A

PAYLOAD ACTIVE UNKNOWN

§ Identity

Operator
Country
VTNM
Launch date
2008-04-18
Launch site
FRGUI
Launch vehicle
Mass (kg)
RCS (m²)
12.59

Purposes: comms

External: N2YO · Heavens-Above · Gunter

§ Orbital elements

Epoch: 2026-05-25T04:22:06.167712Z

Period
1,436.09 min
Inclination
0.0119°
Eccentricity
0.0001672
Mean motion
1.00272602 rev/d
Perigee alt
35,779.3 km
Apogee alt
35,793.4 km
Semi-major
42,164.5 km
B*
0.0000e+0
RAAN
356.8946°
Arg perigee
75.2483°
Mean anomaly
8.1151°
Rev number
6,635

§ Raw data

VINASAT-11 32767U 08018A   26145.18201583 -.00000330  00000+0  00000+0 0  99932 32767   0.0119 356.8946 0001672  75.2483   8.1151  1.00272602 66350

JSON: /api/v1/satellites/32767 · /tle

For live sub-satellite position, see the globe view (requires WebGL).

§ Visibility from observer

Set your observer location to see the next 7 days of passes ≥ 10°. The values pass through the URL so the page stays shareable.

No JS? Fill the form by hand. The geolocation button needs JavaScript.